AirNav   Phillips 66 Aviation Fuel
 
 1688 users online  

PAFR Bryant Army Airfield Heliport
Fort Richardson (Anchorage), Alaska, USA

GOING TO FORT RICHARDSON (ANCHORAGE)?


FAA INFORMATION EFFECTIVE 29 MARCH 2018

Location

FAA Identifier: FRN
Lat/Long: 61-15-57.2375N / 149-39-11.9075W
61-15.953958N / 149-39.198458W
61.2658993 / -149.6533076
(estimated)
Elevation: 386.8 ft. / 117.9 m (surveyed)
Variation: 19E (2008)
From city: 5 miles NE of FORT RICHARDSON(ANCHORAGE), AK
Time zone: UTC -8 (UTC -9 during Standard Time)
Zip code: 99505

Airport Operations

Airport use: Private use. Permission required prior to landing
Control tower: yes
ARTCC: ANCHORAGE CENTER
FSS: KENAI FLIGHT SERVICE STATION [907-283-8469]
NOTAMs facility: PAFR (NOTAM-D service available)
Attendance: 0730-1730 MON-FRI EXCP HOLS
Pattern altitude: 1786.8 ft. MSL
Wind indicator: yes
Segmented circle: yes
Lights: SS-SR
Beacon: white-green (lighted land airport)
Operates sunset to sunrise.

Airport Communications

CTAF: 125.0
ATIS: 134.25
WX AWOS-3: 118.525 (907-384-0132)
BRYANT GROUND: 121.25 239.25 [1700-0100Z++ MON-FRI EXCP FED HOLS.]
BRYANT TOWER: 125.0 254.35 [1700-0100Z++ MON-FRI EXCP FED HOLS.]
ANCHORAGE APPROACH: 118.6
ANCHORAGE DEPARTURE: 118.6
CLEARANCE DELIVERY: 119.1
AASF OPNS: 64.7
CLASS C: 118.6
PMSV METRO: 346.6
WX ASOS at MRI (6 nm SW): PHONE 907-272-0542
WX AWOS-3P at BCV (10 nm NE): 135.55 (907-688-0826)
WX ASOS at LHD (10 nm SW): PHONE 907-245-1618
WX ASOS at ANC (11 nm SW): 118.4 (907-248-2033)
WX AWOS-3P at IYS (19 nm N): 135.25 (907-373-3801)

Nearby radio navigation aids

VOR radial/distance  VOR name  Freq  Var
TEDr038/10.6ANCHORAGE VOR/DME113.1518E
BGQr135/20.3BIG LAKE VORTAC112.5019E

 
NDB name  Hdg/Dist  Freq  Var  ID
CAMPBELL LAKE047/12.733816ECMQ -.-. -- --.-

Airport Services

Fuel available: B+
Parking: hangars
Airframe service: NONE
Powerplant service: NONE
Bottled oxygen: NONE
Bulk oxygen: NONE

Runway Information

Runway 17/35

Dimensions: 4088 x 100 ft. / 1246 x 30 m
Surface: asphalt
Weight bearing capacity: 
PCN 66 /F/A/W/T
Single wheel: 38.0
Double wheel: 54.0
Runway edge lights: medium intensity
Gradient: NORTH
RUNWAY 17  RUNWAY 35
Latitude: 61-16.282833N61-15.625083N
Longitude: 149-39.061233W149-39.335683W
Elevation: 386.8 ft.365.3 ft.
Gradient: 0.2%0.5% UP
Traffic pattern: leftleft
Runway heading: 172 magnetic, 191 true352 magnetic, 011 true
Displaced threshold: no670 ft.
Declared distances: TORA:4088 TODA:4088 ASDA:4088 LDA:4088TORA:4088 TODA:4088 ASDA:4088 LDA:3418
Markings: basic, in good conditionbasic, in good condition
Visual slope indicator: 4-light PAPI on left (3.50 degrees glide path)
Runway end identifier lights: nono
Touchdown point: yes, no lightsyes, no lights
Obstructions: nonepline, marked, 2000 ft. from runway, 25:1 slope to clear

Airport Ownership and Management from official FAA records

Ownership: U.S. Army
Owner: US GOVT USA
HEADQUARTERS
FT. RICHARDSON, AK 99505
Phone 907-384-7868
Manager: BRYANT ARMY AIRFIELD
47430 WESTBROOK AVE
FT RICHARDSON, AK 99505
Phone 907-428-6561

Airport Operational Statistics

Aircraft based on the field: 70
Single engine airplanes: 15
Multi engine airplanes: 3
Military aircraft: 52
    

Additional Remarks

RECOMMEND VISUAL INSPECTION OF RY.
WILDLIFE OCCASIONALLY ON OR NEAR RY.
TFC PATTERN FOR RWY 17/35 WEST TFC ONLY.
VISUALLY INSPECT RWY WHEN TWR IS CLOSED.
BRYANT TWR - 907-428-6850 (DURING OPERATING HOURS).
RY 17/35 TFC PAT R/W 1100 FT MSL; FIXED WING 1900 FT MSL.
LGTD 180 FT ANTENNAS AT NATIONAL GUARD ARMORY E OF RY 17/35.
ARMY AVIATION SUPPORT FACILITY C907-428-6333.
96 HR PPR FOR SVCS.

Instrument Procedures

NOTE: All procedures below are presented as PDF files. If you need a reader for these files, you should download the free Adobe Reader.

NOT FOR NAVIGATION. Please procure official charts for flight.
FAA instrument procedures published for use from 29 March 2018 at 0901Z to 26 April 2018 at 0900Z.

NOTE: Special Take-Off Minimums/Departure Procedures apply   download (265KB)

Other nearby airports with instrument procedures:

PAED - Elmendorf Air Force Base (5 nm W)
PAMR - Merrill Field Airport (6 nm SW)
PANC - Ted Stevens Anchorage International Airport (11 nm SW)
PAGQ - Big Lake Airport (17 nm N)
PAWS - Wasilla Airport (19 nm N)
 
Loc | Ops | Rwys | IFR | FBO | Links
Com | Nav | Svcs | Stats | Notes

Crowley
 
Area around PAFR (Bryant Army Airfield Heliport)
 
Road maps at: MapQuest Bing Google
 
Aerial photo
No photo
 
Sectional chart

 
Airport distance calculator
Flying to Bryant Army Airfield Heliport? Find the distance to fly.

From to PAFR

Sunrise and sunset
Times for 19-Apr-2018
 Local
(UTC-8)
 Zulu
(UTC)
Morning civil twilight05:3513:35
Sunrise06:2614:26
Sunset21:3005:30
Evening civil twilight22:2006:20

Current date and time
Zulu (UTC)  19-Apr-2018 15:53:25
Local (UTC-8)  19-Apr-2018 07:53:25
 
METAR
PAFR 191458Z AUTO 00000KT 10SM OVC095 M02/M02 A2940 RMK AO2 SLP964 T10171022 57009 $
PAED 
4nm W 
191456Z AUTO 00000KT 10SM CLR 00/00 A2942 RMK AO2 SLP960 T00010000 57008 $
PAMR 
6nm SW 
191453Z 00000KT 10SM FEW070 BKN130 BKN200 00/M02 A2943 RMK AO2 SLP967 T00001017 56008
PABV 
10nm NE 
191456Z AUTO 14003KT 10SM SCT090 M01/M03 A2944 RMK AO2 SLP979 T10111028 56007 FZRANO $
PALH 
10nm SW 
191453Z 32003KT 10SM SCT085 BKN110 00/M02 A2944 RMK AO2 SLP969 T00001022 56009
PANC 
12nm SW 
191453Z 33004KT 10SM SCT110 01/M03 A2943 RMK AO2 SLP967 T00111033 56008
TAF
PAED 
4nm W 
191100Z 1911/2017 VRB06KT 9999 SCT060 BKN100 QNH2937INS BECMG 1920/1921 VRB06KT 9999 SCT085 QNH2933INS BECMG 2011/2012 VRB06KT 8000 -RA SCT020 BKN035 620359 QNH2939INS TX08/2001Z TN00/1915Z
PANC 
12nm SW 
191137Z 1912/2018 VRB05KT P6SM BKN100 FM200600 17007KT P6SM SCT060 BKN120 FM201700 16010KT P6SM VCSH BKN060 OVC080
NOTAMs
Click for the latest NOTAMs
NOTAMs are issued by the DoD/FAA and will open in a separate window not controlled by AirNav.

 

 
 

Would you like to see your business listed on this page?

 If your business provides an interesting product or service to pilots, flight crews, aircraft, or users of the Bryant Army Airfield Heliport, you should consider listing it here.  To start the listing process, click on the button below
 
Add a business
 

Other Pages about Bryant Army Airfield Heliport

Update a link
 
Copyright © AirNav, LLC. All rights reserved. Privacy Policy  Contact